N164RJ KTRI-KMKC

Flight info

Callsign N164RJ
Flight time 2h 7m
Altitude 40000
Route DCT IBATE Q50 ENGRA DCT EMBRR DCT DIRTT DCT BQS BQS8
Aircraft B737/M-SDE2E3FGHIRWXY/LB1

Departure

Time 2026-04-19 00:16
Airport Tri-Cities Regional TN/VA Airport (KTRI)

Arrival

Time 2026-04-19 02:23
Airport Charles B. Wheeler Downtown Airport (KMKC)
Time Latitude Longitude Altitude Speed Heading
2026-04-18 23:39 36.48223 -82.40579 1516 ft 0 kts 224°
2026-04-19 00:11 36.48211 -82.40590 1513 ft 8 kts 206°
2026-04-19 00:12 36.48159 -82.40540 1516 ft 13 kts 132°
2026-04-19 00:12 36.48142 -82.40442 1513 ft 14 kts 62°
2026-04-19 00:12 36.48213 -82.40350 1516 ft 14 kts 56°
2026-04-19 00:12 36.48233 -82.40242 1516 ft 11 kts 83°
2026-04-19 00:13 36.48210 -82.40172 1513 ft 4 kts 132°
2026-04-19 00:14 36.48207 -82.40168 1516 ft 2 kts 132°
2026-04-19 00:14 36.48182 -82.40133 1515 ft 9 kts 131°
2026-04-19 00:15 36.48123 -82.40106 1514 ft 8 kts 218°
2026-04-19 00:15 36.48066 -82.40169 1516 ft 29 kts 222°
2026-04-19 00:15 36.47716 -82.40567 1514 ft 105 kts 223°
2026-04-19 00:15 36.47038 -82.41338 1675 ft 150 kts 223°
2026-04-19 00:16 36.46214 -82.42251 2286 ft 164 kts 223°
2026-04-19 00:16 36.45376 -82.43219 3072 ft 161 kts 229°
2026-04-19 00:16 36.44582 -82.44222 3811 ft 175 kts 229°
2026-04-19 00:16 36.43612 -82.45365 4084 ft 207 kts 233°
2026-04-19 00:17 36.43062 -82.47110 4322 ft 234 kts 266°
2026-04-19 00:17 36.43404 -82.49135 4774 ft 253 kts 296°
2026-04-19 00:17 36.44586 -82.50826 5576 ft 265 kts 316°
2026-04-19 00:17 36.45974 -82.52349 6582 ft 269 kts 311°
2026-04-19 00:18 36.47270 -82.54061 7520 ft 276 kts 308°
2026-04-19 00:18 36.48579 -82.55848 8490 ft 284 kts 308°
2026-04-19 00:18 36.49926 -82.57685 9530 ft 291 kts 308°
2026-04-19 00:18 36.51316 -82.59555 10464 ft 300 kts 308°
2026-04-19 00:19 36.52798 -82.61552 10867 ft 329 kts 308°
2026-04-19 00:19 36.54422 -82.63729 11181 ft 355 kts 308°
2026-04-19 00:19 36.56098 -82.65966 12031 ft 360 kts 308°
2026-04-19 00:19 36.57809 -82.68242 13094 ft 360 kts 308°
2026-04-19 00:20 36.59523 -82.70512 14156 ft 360 kts 307°
2026-04-19 00:20 36.61249 -82.72801 14962 ft 367 kts 307°
2026-04-19 00:20 36.63005 -82.75127 15901 ft 370 kts 306°
2026-04-19 00:20 36.64779 -82.77474 16845 ft 374 kts 306°
2026-04-19 00:21 36.66567 -82.79853 17730 ft 379 kts 306°
2026-04-19 00:21 36.68383 -82.82263 18556 ft 383 kts 306°
2026-04-19 00:21 36.70214 -82.84692 19301 ft 387 kts 306°
2026-04-19 00:21 36.72063 -82.87148 20103 ft 390 kts 306°
2026-04-19 00:22 36.73319 -82.88815 20665 ft 391 kts 306°
2026-04-19 00:22 36.75185 -82.91300 21435 ft 394 kts 306°
2026-04-19 00:22 36.77066 -82.93809 22151 ft 398 kts 306°
2026-04-19 00:22 36.78962 -82.96341 22838 ft 402 kts 306°
2026-04-19 00:23 36.80887 -82.98916 23394 ft 409 kts 306°
2026-04-19 00:23 36.82810 -83.01487 23950 ft 412 kts 306°
2026-04-19 00:23 36.84773 -83.04111 24511 ft 415 kts 306°
2026-04-19 00:23 36.86751 -83.06758 25022 ft 418 kts 307°
2026-04-19 00:24 36.88744 -83.09427 25510 ft 423 kts 306°
2026-04-19 00:24 36.90757 -83.12125 26064 ft 425 kts 307°
2026-04-19 00:24 36.92774 -83.14837 26605 ft 428 kts 307°
2026-04-19 00:24 36.94811 -83.17571 27076 ft 432 kts 306°
2026-04-19 00:25 36.96873 -83.20344 27489 ft 437 kts 307°
2026-04-19 00:25 36.98881 -83.23198 27995 ft 435 kts 302°
2026-04-19 00:25 37.00562 -83.26328 28503 ft 433 kts 296°
2026-04-19 00:25 37.02140 -83.29548 28938 ft 435 kts 296°
2026-04-19 00:26 37.03708 -83.32808 29306 ft 439 kts 296°
2026-04-19 00:26 37.05288 -83.36093 29725 ft 443 kts 295°
2026-04-19 00:26 37.06885 -83.39397 30167 ft 443 kts 295°
2026-04-19 00:26 37.08486 -83.42680 30706 ft 440 kts 295°
2026-04-19 00:27 37.10076 -83.45925 31350 ft 433 kts 296°
2026-04-19 00:27 37.11639 -83.49110 32084 ft 425 kts 295°
2026-04-19 00:27 37.13172 -83.52239 32780 ft 418 kts 294°
2026-04-19 00:27 37.14679 -83.55320 33557 ft 409 kts 294°
2026-04-19 00:28 37.16144 -83.58309 34399 ft 397 kts 294°
2026-04-19 00:28 37.17574 -83.61235 35021 ft 391 kts 294°
2026-04-19 00:28 37.18984 -83.64128 35503 ft 387 kts 294°
2026-04-19 00:28 37.20381 -83.67001 35932 ft 384 kts 294°
2026-04-19 00:29 37.21764 -83.69848 36396 ft 381 kts 293°
2026-04-19 00:29 37.23129 -83.72660 37023 ft 373 kts 293°
2026-04-19 00:29 37.24466 -83.75408 37640 ft 366 kts 293°
2026-04-19 00:29 37.25779 -83.78117 38173 ft 360 kts 292°
2026-04-19 00:30 37.27072 -83.80783 38649 ft 356 kts 292°
2026-04-19 00:30 37.28357 -83.83440 38932 ft 355 kts 292°
2026-04-19 00:30 37.29642 -83.86098 39089 ft 357 kts 292°
2026-04-19 00:31 37.32243 -83.91493 39300 ft 365 kts 292°
2026-04-19 00:31 37.34896 -83.96995 39465 ft 370 kts 292°
2026-04-19 00:31 37.36230 -83.99757 39658 ft 370 kts 292°
2026-04-19 00:32 37.37564 -84.02526 39840 ft 371 kts 292°
2026-04-19 00:32 37.38932 -84.05362 39951 ft 368 kts 292°
2026-04-19 00:32 37.40225 -84.08049 40024 ft 369 kts 292°
2026-04-19 00:33 37.42887 -84.13591 40060 ft 372 kts 292°
2026-04-19 00:33 37.45572 -84.19192 40067 ft 375 kts 292°
2026-04-19 00:34 37.49521 -84.27699 40083 ft 373 kts 290°
2026-04-19 00:34 37.51897 -84.33508 40100 ft 373 kts 289°
2026-04-19 00:35 37.54249 -84.39325 40072 ft 372 kts 289°
2026-04-19 00:35 37.56597 -84.45117 40078 ft 371 kts 289°
2026-04-19 00:36 37.58933 -84.50864 40144 ft 371 kts 289°
2026-04-19 00:36 37.61286 -84.56658 40117 ft 372 kts 289°
2026-04-19 00:37 37.63660 -84.62504 40113 ft 372 kts 289°
2026-04-19 00:37 37.65997 -84.68269 40160 ft 371 kts 289°
2026-04-19 00:38 37.68344 -84.74074 40121 ft 370 kts 289°
2026-04-19 00:38 37.70670 -84.79839 40112 ft 368 kts 289°
2026-04-19 00:39 37.72989 -84.85589 40112 ft 367 kts 288°
2026-04-19 00:39 37.75295 -84.91327 40104 ft 366 kts 288°
2026-04-19 00:40 37.77595 -84.97060 40102 ft 366 kts 288°
2026-04-19 00:40 37.79892 -85.02788 40101 ft 365 kts 288°
2026-04-19 00:41 37.82189 -85.08531 40101 ft 366 kts 288°
2026-04-19 00:41 37.84482 -85.14275 40094 ft 365 kts 288°
2026-04-19 00:42 37.86769 -85.20012 40108 ft 365 kts 288°
2026-04-19 00:42 37.89049 -85.25764 40081 ft 365 kts 288°
2026-04-19 00:43 37.91327 -85.31504 40113 ft 365 kts 288°
2026-04-19 00:43 37.93606 -85.37243 40105 ft 364 kts 288°
2026-04-19 00:44 37.95883 -85.42978 40132 ft 364 kts 287°
2026-04-19 00:44 37.98154 -85.48732 40113 ft 365 kts 287°
2026-04-19 00:45 38.00416 -85.54468 40103 ft 364 kts 287°
2026-04-19 00:45 38.02679 -85.60223 40097 ft 366 kts 287°
2026-04-19 00:46 38.04943 -85.65999 40103 ft 366 kts 287°
2026-04-19 00:46 38.07205 -85.71771 40098 ft 365 kts 287°
2026-04-19 00:47 38.09459 -85.77543 40107 ft 365 kts 287°
2026-04-19 00:47 38.11724 -85.83347 40110 ft 367 kts 287°
2026-04-19 00:48 38.13988 -85.89158 40110 ft 366 kts 287°
2026-04-19 00:48 38.16243 -85.94956 40108 ft 366 kts 287°
2026-04-19 00:49 38.18506 -86.00750 40105 ft 366 kts 287°
2026-04-19 00:49 38.20746 -86.06544 40115 ft 365 kts 287°
2026-04-19 00:50 38.22986 -86.12332 40116 ft 365 kts 287°
2026-04-19 00:50 38.25222 -86.18121 40135 ft 364 kts 287°
2026-04-19 00:51 38.27458 -86.23917 40137 ft 365 kts 286°
2026-04-19 00:51 38.29700 -86.29746 40127 ft 367 kts 286°
2026-04-19 00:52 38.31937 -86.35581 40131 ft 367 kts 286°
2026-04-19 00:52 38.34168 -86.41422 40132 ft 367 kts 286°
2026-04-19 00:53 38.36405 -86.47273 40134 ft 367 kts 286°
2026-04-19 00:53 38.38627 -86.53091 40135 ft 368 kts 286°
2026-04-19 00:54 38.40861 -86.58954 40153 ft 366 kts 286°
2026-04-19 00:54 38.43087 -86.64822 40149 ft 368 kts 286°
2026-04-19 00:55 38.45322 -86.70703 40151 ft 368 kts 286°
2026-04-19 00:55 38.47556 -86.76593 40147 ft 368 kts 286°
2026-04-19 00:56 38.49781 -86.82479 40143 ft 368 kts 286°
2026-04-19 00:56 38.52003 -86.88374 40134 ft 369 kts 286°
2026-04-19 00:57 38.54225 -86.94275 40132 ft 368 kts 286°
2026-04-19 00:57 38.56441 -87.00175 40150 ft 368 kts 285°
2026-04-19 00:58 38.58655 -87.06079 40134 ft 368 kts 285°
2026-04-19 00:58 38.60864 -87.11980 40139 ft 368 kts 285°
2026-04-19 00:59 38.63075 -87.17896 40150 ft 370 kts 285°
2026-04-19 00:59 38.65164 -87.23881 40140 ft 364 kts 280°
2026-04-19 01:00 38.66389 -87.30083 40145 ft 359 kts 275°
2026-04-19 01:00 38.67471 -87.36338 40147 ft 361 kts 275°
2026-04-19 01:01 38.68563 -87.42632 40148 ft 363 kts 275°
2026-04-19 01:01 38.69664 -87.48955 40155 ft 365 kts 275°
2026-04-19 01:02 38.70771 -87.55307 40156 ft 366 kts 275°
2026-04-19 01:02 38.71877 -87.61660 40155 ft 366 kts 275°
2026-04-19 01:03 38.72982 -87.68017 40231 ft 365 kts 275°
2026-04-19 01:03 38.74079 -87.74373 40242 ft 366 kts 275°
2026-04-19 01:04 38.75169 -87.80704 40232 ft 366 kts 275°
2026-04-19 01:04 38.76263 -87.87083 40226 ft 367 kts 275°
2026-04-19 01:05 38.77357 -87.93467 40213 ft 367 kts 275°
2026-04-19 01:05 38.78445 -87.99848 40198 ft 366 kts 275°
2026-04-19 01:06 38.79346 -88.05151 40182 ft 366 kts 275°
2026-04-19 01:06 38.80428 -88.11536 40176 ft 367 kts 275°
2026-04-19 01:07 38.81509 -88.17943 40176 ft 368 kts 275°
2026-04-19 01:07 38.82588 -88.24358 40169 ft 368 kts 275°
2026-04-19 01:08 38.83666 -88.30781 40165 ft 368 kts 275°
2026-04-19 01:08 38.84736 -88.37199 40183 ft 369 kts 275°
2026-04-19 01:09 38.85809 -88.43638 40156 ft 369 kts 275°
2026-04-19 01:09 38.86874 -88.50080 40173 ft 369 kts 275°
2026-04-19 01:10 38.87937 -88.56536 40158 ft 370 kts 275°
2026-04-19 01:10 38.89005 -88.63019 40165 ft 373 kts 275°
2026-04-19 01:11 38.90076 -88.69550 40162 ft 375 kts 275°
2026-04-19 01:11 38.91149 -88.76111 40161 ft 376 kts 275°
2026-04-19 01:12 38.92220 -88.82690 40161 ft 376 kts 275°
2026-04-19 01:12 38.93288 -88.89277 40158 ft 377 kts 275°
2026-04-19 01:13 38.94355 -88.95872 40158 ft 377 kts 275°
2026-04-19 01:13 38.95415 -89.02462 40164 ft 377 kts 275°
2026-04-19 01:14 38.96472 -89.09052 40159 ft 376 kts 275°
2026-04-19 01:14 38.97523 -89.15635 40167 ft 376 kts 275°
2026-04-19 01:15 38.98570 -89.22208 40162 ft 375 kts 275°
2026-04-19 01:15 38.99604 -89.28736 40175 ft 375 kts 275°
2026-04-19 01:16 39.00642 -89.35305 40174 ft 375 kts 275°
2026-04-19 01:16 39.01674 -89.41871 40168 ft 374 kts 275°
2026-04-19 01:17 39.02702 -89.48434 40170 ft 374 kts 275°
2026-04-19 01:17 39.03725 -89.54989 40169 ft 374 kts 275°
2026-04-19 01:18 39.04743 -89.61551 40172 ft 374 kts 275°
2026-04-19 01:18 39.05761 -89.68112 40167 ft 374 kts 275°
2026-04-19 01:19 39.06773 -89.74666 40173 ft 373 kts 275°
2026-04-19 01:19 39.07780 -89.81227 40171 ft 374 kts 275°
2026-04-19 01:20 39.08786 -89.87793 40177 ft 374 kts 275°
2026-04-19 01:20 39.09785 -89.94361 40175 ft 374 kts 275°
2026-04-19 01:21 39.10780 -90.00922 40193 ft 374 kts 275°
2026-04-19 01:21 39.11776 -90.07496 40185 ft 374 kts 275°
2026-04-19 01:22 39.12759 -90.14027 40191 ft 375 kts 274°
2026-04-19 01:22 39.13750 -90.20638 40188 ft 377 kts 274°
2026-04-19 01:23 39.14740 -90.27269 40187 ft 377 kts 274°
2026-04-19 01:23 39.15729 -90.33909 40190 ft 378 kts 274°
2026-04-19 01:24 39.16716 -90.40565 40196 ft 378 kts 274°
2026-04-19 01:24 39.17699 -90.47226 40192 ft 379 kts 274°
2026-04-19 01:25 39.18678 -90.53891 40189 ft 379 kts 274°
2026-04-19 01:25 39.19656 -90.60566 40189 ft 379 kts 274°
2026-04-19 01:26 39.20630 -90.67241 40192 ft 379 kts 274°
2026-04-19 01:26 39.21598 -90.73915 40193 ft 379 kts 274°
2026-04-19 01:27 39.22564 -90.80596 40204 ft 380 kts 274°
2026-04-19 01:27 39.23528 -90.87298 40203 ft 381 kts 274°
2026-04-19 01:28 39.24491 -90.94019 40203 ft 381 kts 274°
2026-04-19 01:28 39.25450 -91.00735 40199 ft 381 kts 274°
2026-04-19 01:29 39.26409 -91.07449 40205 ft 381 kts 274°
2026-04-19 01:29 39.27372 -91.14171 40207 ft 381 kts 274°
2026-04-19 01:30 39.28331 -91.20892 40204 ft 381 kts 274°
2026-04-19 01:30 39.29289 -91.27635 40212 ft 382 kts 274°
2026-04-19 01:31 39.30244 -91.34383 40211 ft 382 kts 274°
2026-04-19 01:31 39.31195 -91.41133 40210 ft 382 kts 274°
2026-04-19 01:32 39.32134 -91.47842 40213 ft 382 kts 274°
2026-04-19 01:32 39.33077 -91.54592 40235 ft 382 kts 275°
2026-04-19 01:33 39.34017 -91.61358 40228 ft 383 kts 274°
2026-04-19 01:33 39.34957 -91.68152 40242 ft 385 kts 275°
2026-04-19 01:34 39.35897 -91.74975 40231 ft 386 kts 275°
2026-04-19 01:34 39.36834 -91.81809 40226 ft 386 kts 275°
2026-04-19 01:35 39.37768 -91.88652 40227 ft 387 kts 275°
2026-04-19 01:35 39.38698 -91.95504 40230 ft 387 kts 275°
2026-04-19 01:36 39.39625 -92.02352 40236 ft 387 kts 275°
2026-04-19 01:36 39.40546 -92.09200 40229 ft 386 kts 275°
2026-04-19 01:37 39.41462 -92.16041 40242 ft 386 kts 275°
2026-04-19 01:37 39.42374 -92.22874 40245 ft 386 kts 275°
2026-04-19 01:38 39.43281 -92.29710 40267 ft 385 kts 275°
2026-04-19 01:38 39.44184 -92.36546 40250 ft 385 kts 275°
2026-04-19 01:39 39.45083 -92.43379 40238 ft 385 kts 275°
2026-04-19 01:39 39.45977 -92.50212 40242 ft 385 kts 275°
2026-04-19 01:40 39.46867 -92.57043 40238 ft 385 kts 275°
2026-04-19 01:40 39.47756 -92.63918 39684 ft 390 kts 275°
2026-04-19 01:41 39.48201 -92.67354 39136 ft 385 kts 275°
2026-04-19 01:41 39.48643 -92.70768 38475 ft 382 kts 275°
2026-04-19 01:41 39.49079 -92.74152 37449 ft 383 kts 275°
2026-04-19 01:41 39.49513 -92.77532 36761 ft 378 kts 275°
2026-04-19 01:42 39.49941 -92.80870 35870 ft 377 kts 274°
2026-04-19 01:42 39.50366 -92.84207 35124 ft 373 kts 274°
2026-04-19 01:42 39.51203 -92.90772 33446 ft 366 kts 273°
2026-04-19 01:43 39.51614 -92.94001 32612 ft 361 kts 273°
2026-04-19 01:43 39.52017 -92.97176 31927 ft 354 kts 272°
2026-04-19 01:43 39.52407 -93.00252 31304 ft 347 kts 272°
2026-04-19 01:43 39.52794 -93.03309 30666 ft 341 kts 271°
2026-04-19 01:44 39.53171 -93.06311 30003 ft 335 kts 272°
2026-04-19 01:44 39.53540 -93.09268 29313 ft 329 kts 272°
2026-04-19 01:44 39.53902 -93.12168 28720 ft 323 kts 273°
2026-04-19 01:44 39.54258 -93.15030 28025 ft 321 kts 274°
2026-04-19 01:45 39.54609 -93.17869 27345 ft 317 kts 274°
2026-04-19 01:45 39.54958 -93.20680 26724 ft 315 kts 274°
2026-04-19 01:45 39.55302 -93.23469 26097 ft 313 kts 275°
2026-04-19 01:45 39.55644 -93.26247 25474 ft 311 kts 275°
2026-04-19 01:46 39.55986 -93.29014 24829 ft 311 kts 276°
2026-04-19 01:46 39.56328 -93.31779 24191 ft 311 kts 276°
2026-04-19 01:46 39.56667 -93.34538 23480 ft 310 kts 276°
2026-04-19 01:46 39.57004 -93.37285 22786 ft 307 kts 277°
2026-04-19 01:47 39.57337 -93.40006 22154 ft 304 kts 278°
2026-04-19 01:47 39.57667 -93.42698 21517 ft 301 kts 278°
2026-04-19 01:47 39.57993 -93.45366 20896 ft 298 kts 279°
2026-04-19 01:47 39.58314 -93.48009 20299 ft 296 kts 279°
2026-04-19 01:48 39.58633 -93.50633 19702 ft 293 kts 280°
2026-04-19 01:48 39.58948 -93.53237 19107 ft 291 kts 281°
2026-04-19 01:48 39.59261 -93.55823 18523 ft 290 kts 281°
2026-04-19 01:48 39.59569 -93.58365 17861 ft 288 kts 281°
2026-04-19 01:49 39.59879 -93.60930 17085 ft 290 kts 281°
2026-04-19 01:49 39.60189 -93.63499 16458 ft 287 kts 281°
2026-04-19 01:49 39.60495 -93.66045 15847 ft 285 kts 282°
2026-04-19 01:49 39.60798 -93.68566 15269 ft 282 kts 282°
2026-04-19 01:50 39.61096 -93.71062 14700 ft 279 kts 282°
2026-04-19 01:50 39.61392 -93.73533 14135 ft 276 kts 282°
2026-04-19 01:50 39.61685 -93.75984 13526 ft 274 kts 282°
2026-04-19 01:50 39.61974 -93.78407 12954 ft 270 kts 281°
2026-04-19 01:51 39.62260 -93.80806 12381 ft 268 kts 281°
2026-04-19 01:51 39.62544 -93.83194 12131 ft 266 kts 280°
2026-04-19 01:51 39.62801 -93.85585 12049 ft 267 kts 275°
2026-04-19 01:51 39.62545 -93.87932 12031 ft 259 kts 259°
2026-04-19 01:52 39.61825 -93.90052 12023 ft 255 kts 246°
2026-04-19 01:52 39.61208 -93.91339 12014 ft 254 kts 244°
2026-04-19 01:52 39.60229 -93.93259 12030 ft 257 kts 243°
2026-04-19 01:52 39.59228 -93.95201 12030 ft 261 kts 243°
2026-04-19 01:53 39.58221 -93.97168 12033 ft 262 kts 243°
2026-04-19 01:53 39.57221 -93.99135 12023 ft 261 kts 244°
2026-04-19 01:53 39.56226 -94.01098 12021 ft 259 kts 244°
2026-04-19 01:53 39.54920 -94.03683 12021 ft 259 kts 244°
2026-04-19 01:54 39.54254 -94.05002 12017 ft 259 kts 244°
2026-04-19 01:54 39.53309 -94.07031 11680 ft 266 kts 247°
2026-04-19 01:54 39.52429 -94.09124 11334 ft 262 kts 247°
2026-04-19 01:54 39.51578 -94.11178 11005 ft 256 kts 247°
2026-04-19 01:55 39.50753 -94.13165 10700 ft 251 kts 246°
2026-04-19 01:55 39.49912 -94.15186 10382 ft 252 kts 248°
2026-04-19 01:55 39.49089 -94.17169 10061 ft 254 kts 247°
2026-04-19 01:55 39.48249 -94.19179 9725 ft 253 kts 246°
2026-04-19 01:56 39.47411 -94.21178 9403 ft 253 kts 248°
2026-04-19 01:56 39.46573 -94.23178 9085 ft 252 kts 247°
2026-04-19 01:56 39.45731 -94.25173 8787 ft 253 kts 246°
2026-04-19 01:56 39.44887 -94.27180 8471 ft 254 kts 246°
2026-04-19 01:57 39.44047 -94.29184 8160 ft 252 kts 246°
2026-04-19 01:57 39.43207 -94.31176 7852 ft 253 kts 245°
2026-04-19 01:57 39.42361 -94.33181 7558 ft 253 kts 245°
2026-04-19 01:57 39.41517 -94.35181 7260 ft 253 kts 245°
2026-04-19 01:58 39.40674 -94.37178 6959 ft 253 kts 244°
2026-04-19 01:58 39.39832 -94.39169 6674 ft 252 kts 244°
2026-04-19 01:58 39.38991 -94.41156 6373 ft 252 kts 244°
2026-04-19 01:58 39.38151 -94.43139 6072 ft 249 kts 244°
2026-04-19 01:59 39.37324 -94.45091 5824 ft 248 kts 244°
2026-04-19 01:59 39.36491 -94.47056 5562 ft 251 kts 244°
2026-04-19 01:59 39.35648 -94.49045 5305 ft 254 kts 244°
2026-04-19 01:59 39.34808 -94.51023 5048 ft 245 kts 243°
2026-04-19 02:00 39.33709 -94.52604 4795 ft 236 kts 213°
2026-04-19 02:00 39.32245 -94.53421 4553 ft 225 kts 203°
2026-04-19 02:00 39.30751 -94.53972 4258 ft 221 kts 197°
2026-04-19 02:00 39.29274 -94.54385 3978 ft 214 kts 196°
2026-04-19 02:01 39.27872 -94.54783 3704 ft 203 kts 196°
2026-04-19 02:01 39.26524 -94.55172 3442 ft 191 kts 196°
2026-04-19 02:01 39.25237 -94.55547 3176 ft 188 kts 196°
2026-04-19 02:01 39.23958 -94.55918 2939 ft 185 kts 196°
2026-04-19 02:02 39.22741 -94.56270 2705 ft 173 kts 196°
2026-04-19 02:02 39.21580 -94.56607 2482 ft 170 kts 196°
2026-04-19 02:02 39.20432 -94.56941 2244 ft 163 kts 196°
2026-04-19 02:02 39.19394 -94.57239 2035 ft 144 kts 197°
2026-04-19 02:03 39.18463 -94.57507 1862 ft 134 kts 194°
2026-04-19 02:03 39.17583 -94.57765 1686 ft 127 kts 195°
2026-04-19 02:03 39.16735 -94.58011 1523 ft 126 kts 193°
2026-04-19 02:03 39.15879 -94.58240 1321 ft 124 kts 195°
2026-04-19 02:04 39.15056 -94.58473 1139 ft 123 kts 197°
2026-04-19 02:04 39.14218 -94.58737 987 ft 124 kts 193°
2026-04-19 02:04 39.13382 -94.58975 814 ft 120 kts 195°
2026-04-19 02:04 39.12619 -94.59202 753 ft 97 kts 192°
2026-04-19 02:05 39.11994 -94.59383 751 ft 126 kts 191°
2026-04-19 02:05 39.10880 -94.59686 1252 ft 193 kts 192°
2026-04-19 02:05 39.09395 -94.60036 2124 ft 237 kts 190°
2026-04-19 02:05 39.07856 -94.60757 2736 ft 247 kts 224°
2026-04-19 02:06 39.07086 -94.62712 2970 ft 250 kts 263°
2026-04-19 02:06 39.07096 -94.64929 2984 ft 250 kts 272°
2026-04-19 02:06 39.07361 -94.67145 2996 ft 252 kts 284°
2026-04-19 02:06 39.07759 -94.69315 2973 ft 241 kts 283°
2026-04-19 02:07 39.08118 -94.71318 2974 ft 221 kts 283°
2026-04-19 02:07 39.08457 -94.73185 2978 ft 212 kts 283°
2026-04-19 02:07 39.08830 -94.74983 2978 ft 206 kts 294°
2026-04-19 02:07 39.09427 -94.76667 2995 ft 209 kts 287°
2026-04-19 02:08 39.09850 -94.78480 3002 ft 213 kts 288°
2026-04-19 02:08 39.10321 -94.80270 2987 ft 209 kts 291°
2026-04-19 02:08 39.10860 -94.82002 2993 ft 208 kts 292°
2026-04-19 02:08 39.11409 -94.83722 2993 ft 208 kts 292°
2026-04-19 02:09 39.12024 -94.85404 2985 ft 209 kts 306°
2026-04-19 02:09 39.13172 -94.86495 2993 ft 210 kts 341°
2026-04-19 02:09 39.14629 -94.86653 3013 ft 212 kts 360°
2026-04-19 02:09 39.16110 -94.86566 2993 ft 214 kts
2026-04-19 02:10 39.17585 -94.86222 3001 ft 216 kts 11°
2026-04-19 02:10 39.19054 -94.85773 2996 ft 218 kts 11°
2026-04-19 02:10 39.20543 -94.85320 2994 ft 221 kts 11°
2026-04-19 02:10 39.22041 -94.84863 2976 ft 220 kts 11°
2026-04-19 02:11 39.23513 -94.84413 2985 ft 215 kts 11°
2026-04-19 02:11 39.24966 -94.83972 2996 ft 216 kts 13°
2026-04-19 02:11 39.26340 -94.83141 2990 ft 218 kts 23°
2026-04-19 02:11 39.27790 -94.82614 3000 ft 217 kts
2026-04-19 02:12 39.29273 -94.82241 2994 ft 217 kts
2026-04-19 02:12 39.30756 -94.81863 3007 ft 218 kts
2026-04-19 02:12 39.32220 -94.81488 2982 ft 216 kts 11°
2026-04-19 02:12 39.33545 -94.80636 2991 ft 217 kts 43°
2026-04-19 02:13 39.34281 -94.78928 2993 ft 224 kts 77°
2026-04-19 02:13 39.34394 -94.76920 2997 ft 226 kts 89°
2026-04-19 02:13 39.34359 -94.74879 2992 ft 228 kts 91°
2026-04-19 02:13 39.34308 -94.72828 2990 ft 229 kts 90°
2026-04-19 02:14 39.34260 -94.70787 2987 ft 226 kts 90°
2026-04-19 02:14 39.34223 -94.68763 2988 ft 225 kts 90°
2026-04-19 02:14 39.34236 -94.66751 2982 ft 223 kts 78°
2026-04-19 02:14 39.34893 -94.65001 3022 ft 217 kts 47°
2026-04-19 02:15 39.35959 -94.63608 2999 ft 218 kts 42°
2026-04-19 02:15 39.37177 -94.62481 3008 ft 215 kts 23°
2026-04-19 02:15 39.38580 -94.61809 3000 ft 215 kts 13°
2026-04-19 02:15 39.40029 -94.61341 3004 ft 216 kts 12°
2026-04-19 02:16 39.41473 -94.60803 2992 ft 218 kts 26°
2026-04-19 02:16 39.42407 -94.59389 2990 ft 205 kts 72°
2026-04-19 02:16 39.42420 -94.57613 3016 ft 196 kts 100°
2026-04-19 02:16 39.41897 -94.56002 3001 ft 196 kts 127°
2026-04-19 02:17 39.40876 -94.54830 3006 ft 204 kts 154°
2026-04-19 02:17 39.39494 -94.54272 3002 ft 208 kts 172°
2026-04-19 02:17 39.38112 -94.53952 2873 ft 196 kts 172°
2026-04-19 02:17 39.36779 -94.53647 2627 ft 196 kts 172°
2026-04-19 02:18 39.35428 -94.53339 2620 ft 198 kts 172°
2026-04-19 02:18 39.34076 -94.53125 2578 ft 193 kts 185°
2026-04-19 02:18 39.32768 -94.53364 2608 ft 190 kts 194°
2026-04-19 02:18 39.31487 -94.53722 2608 ft 191 kts 195°
2026-04-19 02:19 39.30199 -94.54099 2598 ft 185 kts 195°
2026-04-19 02:19 39.28988 -94.54450 2573 ft 173 kts 195°
2026-04-19 02:19 39.27831 -94.54786 2594 ft 169 kts 196°
2026-04-19 02:20 39.25521 -94.55458 2602 ft 168 kts 195°
2026-04-19 02:20 39.24389 -94.55788 2606 ft 167 kts 195°
2026-04-19 02:20 39.23254 -94.56117 2596 ft 164 kts 196°
2026-04-19 02:20 39.22199 -94.56422 2577 ft 150 kts 196°
2026-04-19 02:21 39.21210 -94.56710 2408 ft 141 kts 196°
2026-04-19 02:21 39.20285 -94.56977 2216 ft 134 kts 195°
2026-04-19 02:21 39.19393 -94.57238 2034 ft 129 kts 195°
2026-04-19 02:21 39.18508 -94.57498 1875 ft 130 kts 195°
2026-04-19 02:22 39.17628 -94.57751 1683 ft 129 kts 193°
2026-04-19 02:22 39.16771 -94.57995 1474 ft 124 kts 193°
2026-04-19 02:22 39.15924 -94.58217 1320 ft 125 kts 195°
2026-04-19 02:22 39.15076 -94.58479 1153 ft 129 kts 195°
2026-04-19 02:23 39.14201 -94.58741 998 ft 129 kts 195°
2026-04-19 02:23 39.13354 -94.58990 799 ft 121 kts 195°
2026-04-19 02:23 39.12624 -94.59203 753 ft 83 kts 192°
2026-04-19 02:23 39.12253 -94.59308 753 ft 41 kts 192°
2026-04-19 02:24 39.12014 -94.59360 752 ft 23 kts 176°
2026-04-19 02:24 39.11861 -94.59338 749 ft 21 kts 172°
2026-04-19 02:24 39.11807 -94.59329 753 ft 0 kts 171°
2026-04-19 02:25 39.11801 -94.59327 749 ft 3 kts 169°
2026-04-19 02:25 39.11796 -94.59296 753 ft 5 kts 40°
2026-04-19 02:26 39.11852 -94.59276 749 ft 12 kts 11°
2026-04-19 02:26 39.11949 -94.59249 749 ft 15 kts 12°
2026-04-19 02:26 39.12048 -94.59222 750 ft 15 kts 11°
2026-04-19 02:26 39.12150 -94.59164 754 ft 17 kts 39°
2026-04-19 02:27 39.12245 -94.59067 750 ft 19 kts 38°
2026-04-19 02:27 39.12346 -94.58961 751 ft 18 kts 38°
2026-04-19 02:27 39.12459 -94.58904 754 ft 18 kts
2026-04-19 02:27 39.12579 -94.58888 752 ft 17 kts
2026-04-19 02:28 39.12702 -94.58872 751 ft 19 kts
2026-04-19 02:28 39.12824 -94.58863 751 ft 13 kts 341°
2026-04-19 02:28 39.12864 -94.58961 750 ft 13 kts 282°
2026-04-19 02:28 39.12883 -94.59074 749 ft 14 kts 283°
2026-04-19 02:29 39.12906 -94.59199 753 ft 11 kts 283°
2026-04-19 02:29 39.12883 -94.59277 753 ft 7 kts 230°
2026-04-19 02:29 39.12877 -94.59292 750 ft 8 kts 244°
2026-04-19 02:29 39.12827 -94.59339 750 ft 11 kts 188°
2026-04-19 02:30 39.12751 -94.59354 752 ft 10 kts 197°
2026-04-19 02:30 39.12744 -94.59398 751 ft 2 kts 284°
2026-04-19 02:30 39.12744 -94.59399 754 ft 0 kts 284°